Location: *
(48.8489°N, 2.3218°E)
Time: 22:51:52
(UTC+00:00)

Cosmos 2341 Rocket - Pass Details

Date: 23 August 2019
Orbit: 968 x 1004 km, 82.9° (Epoch: 19 September)

Event Time Altitude Azimuth Distance (km) Brightness Sun altitude
Rises 21:44:46 0° 354° (N) 3,738 8.0 -23.5°
Reaches altitude 10° 21:47:27 10° 1° (N) 2,780 7.1 -23.8°
Maximum altitude 21:53:32 45° 73° (ENE) 1,335 4.5 -24.3°
Enters shadow 21:54:40 41° 101° (E) 1,408 4.5 -24.4°
